Stations météo

réclame
Mon MeteoGroup
Hemavan-Skorvfjallet, Suède (2103): Température de l'air & dewpoint: 08.08.2018 08:00:00 - 14.08.2018 08:00:00 (CEST)
Date & Time tt [°C] td [°C]
14.08.2018 08:00:00 5,2 3,9
14.08.2018 07:00:00 4,5 3,9
14.08.2018 06:00:00 4,6 3,7
14.08.2018 05:00:00 4,4 3,7
14.08.2018 04:00:00 4,3 3,7
14.08.2018 03:00:00 4,6 3,4
14.08.2018 02:00:00 4,5 3,2
14.08.2018 01:00:00 4,6 3,1
14.08.2018 00:00:00 4,8 2,5
13.08.2018 23:00:00 4,9 3,9
13.08.2018 22:00:00 5,3 4,0
13.08.2018 21:00:00 5,8 3,6
13.08.2018 20:00:00 6,2 3,0
13.08.2018 19:00:00 6,8 3,8
13.08.2018 18:00:00 7,2 4,2
13.08.2018 17:00:00 7,0 3,8
13.08.2018 16:00:00 6,9 3,8
13.08.2018 15:00:00 7,3 3,7
13.08.2018 14:00:00 7,6 3,6
13.08.2018 13:00:00 7,6 4,0
13.08.2018 12:00:00 7,8 3,6
13.08.2018 11:00:00 7,3 3,5
13.08.2018 10:00:00 7,1 3,7
13.08.2018 09:00:00 6,1 3,4
13.08.2018 08:00:00 5,4 3,1
13.08.2018 07:00:00 5,1 2,8
13.08.2018 06:00:00 5,1 3,1
13.08.2018 05:00:00 5,2 3,9
13.08.2018 04:00:00 5,4 4,8
13.08.2018 03:00:00 5,3 4,9
13.08.2018 02:00:00 5,5 4,9
13.08.2018 01:00:00 5,8 5,1
13.08.2018 00:00:00 5,9 5,2
12.08.2018 23:00:00 5,6 5,3
12.08.2018 22:00:00 5,7 5,3
12.08.2018 21:00:00 5,6 5,6
12.08.2018 20:00:00 6,1 5,8
12.08.2018 19:00:00 6,3 5,9
12.08.2018 18:00:00 7,0 6,1
12.08.2018 17:00:00 7,3 7,2
12.08.2018 16:00:00 7,6 7,0
12.08.2018 15:00:00 6,8 6,5
12.08.2018 14:00:00 6,4 6,0
12.08.2018 13:00:00 5,8 5,7
12.08.2018 12:00:00 5,6 5,5
12.08.2018 11:00:00 5,4 5,4
12.08.2018 10:00:00 5,2 5,2
12.08.2018 09:00:00 5,5 5,4
12.08.2018 08:00:00 5,1 4,7
12.08.2018 07:00:00 5,1 4,4
12.08.2018 06:00:00 5,0 4,4
12.08.2018 05:00:00 5,0 4,4
12.08.2018 04:00:00 5,2 4,8
12.08.2018 03:00:00 5,1 4,7
12.08.2018 02:00:00 5,0 4,4
12.08.2018 01:00:00 5,3 4,3
12.08.2018 00:00:00 5,6 5,0
11.08.2018 23:00:00 5,6 5,3
11.08.2018 22:00:00 5,6 4,7
11.08.2018 21:00:00 6,1 5,2
11.08.2018 20:00:00 6,0 5,1
11.08.2018 19:00:00 6,1 5,4
11.08.2018 18:00:00 6,0 5,7
11.08.2018 17:00:00 5,9 5,8
11.08.2018 16:00:00 6,5 6,5
11.08.2018 15:00:00 7,3 7,3
11.08.2018 14:00:00 7,9 7,9
11.08.2018 13:00:00 8,2 8,2
11.08.2018 12:00:00 8,9 8,9
11.08.2018 11:00:00 9,6 8,7
11.08.2018 10:00:00 9,3 8,1
11.08.2018 09:00:00 8,7 7,9
11.08.2018 08:00:00 8,4 8,1
11.08.2018 07:00:00 8,6 8,3
11.08.2018 06:00:00 9,3 9,0
11.08.2018 05:00:00 10,1 8,7
11.08.2018 04:00:00 10,6 9,7
11.08.2018 03:00:00 11,4 10,8
11.08.2018 02:00:00 11,3 11,3
11.08.2018 01:00:00 11,4 11,4
11.08.2018 00:00:00 11,9 11,9
10.08.2018 23:00:00 11,1 11,1
10.08.2018 22:00:00 10,5 10,5
10.08.2018 21:00:00 10,3 10,3
10.08.2018 20:00:00 10,7 9,6
10.08.2018 19:00:00 10,5 9,3
10.08.2018 18:00:00 10,1 8,7
10.08.2018 17:00:00 9,6 9,1
10.08.2018 16:00:00 9,1 8,5
10.08.2018 15:00:00 9,5 8,3
10.08.2018 14:00:00 9,1 8,3
10.08.2018 13:00:00 8,8 7,7
10.08.2018 12:00:00 8,6 7,8
10.08.2018 11:00:00 8,4 7,5
10.08.2018 10:00:00 8,8 7,6
10.08.2018 09:00:00 8,9 7,7
10.08.2018 08:00:00 8,4 8,0
10.08.2018 07:00:00 8,4 6,9
10.08.2018 06:00:00 9,0 6,1
10.08.2018 05:00:00 7,9 6,4
10.08.2018 04:00:00 9,2 6,1
10.08.2018 03:00:00 8,8 6,2
10.08.2018 02:00:00 8,9 6,2
10.08.2018 01:00:00 9,4 6,3
10.08.2018 00:00:00 8,9 7,0
09.08.2018 23:00:00 9,4 7,0
09.08.2018 22:00:00 9,6 7,0
09.08.2018 21:00:00 11,0 7,3
09.08.2018 20:00:00 11,1 7,6
09.08.2018 19:00:00 12,3 7,2
09.08.2018 18:00:00 12,9 7,1
09.08.2018 17:00:00 12,4 7,3
09.08.2018 16:00:00 12,8 7,7
09.08.2018 15:00:00 12,2 7,5
09.08.2018 14:00:00 12,7 6,5
09.08.2018 13:00:00 11,7 8,4
09.08.2018 12:00:00 13,1 9,7
09.08.2018 11:00:00 12,4 9,4
09.08.2018 10:00:00 11,9 8,9
09.08.2018 09:00:00 10,9 9,2
09.08.2018 08:00:00 11,0 11,0
09.08.2018 07:00:00 13,2 13,2
09.08.2018 06:00:00 13,2 13,2
09.08.2018 05:00:00 13,3 13,3
09.08.2018 04:00:00 13,5 13,2
09.08.2018 03:00:00 13,3 13,0
09.08.2018 02:00:00 13,4 13,2
09.08.2018 01:00:00 13,4 13,2
09.08.2018 00:00:00 13,3 13,1
08.08.2018 23:00:00 13,3 13,1
08.08.2018 22:00:00 13,2 13,0
08.08.2018 21:00:00 13,2 12,7
08.08.2018 20:00:00 13,3 13,3
08.08.2018 19:00:00 17,1 12,4
08.08.2018 18:00:00 17,8 12,0
08.08.2018 17:00:00 18,3 11,9
08.08.2018 16:00:00 18,4 11,7
08.08.2018 15:00:00 19,9 11,1
08.08.2018 14:00:00 17,6 10,7
08.08.2018 13:00:00 18,1 10,5
08.08.2018 12:00:00 17,1 10,7
08.08.2018 11:00:00 15,7 10,2
08.08.2018 10:00:00 14,6 9,4
08.08.2018 09:00:00 13,5 8,8
08.08.2018 08:00:00 11,7 8,4

tt = Température de l'air
td = dewpoint

stations d'obs. à proximité